Regional Weather Roundup
Issued by NWS Goodland, KS

Home | Current Version | Previous Version | Graphics & Text | Print | Product List | Glossary On
Versions: 1 2 3 4 5 6 7 8 9 10 11 12 13 14 15 16 17 18 19 20 21 22 23 24 25 26 27 28 29 30 31 32 33 34 35 36 37 38 39 40 41 42 43 44 45 46 47 48 49 50
000
ASUS43 KGLD 210859
RWRGLD

GOODLAND FORECAST AREA HOURLY WEATHER ROUNDUP
NATIONAL WEATHER SERVICE GOODLAND KS
200 AM MST WED FEB 21 2018

...OFFICIAL OBSERVATIONS...

CITY           SKY/WX    TMP DP  RH WIND       PRES   REMARKS
GOODLAND KS    CLEAR      1  -5  75 W6        30.33F
HILL CITY KS   CLOUDY     8   3  80 N6        30.48R
IMPERIAL NEB   CLEAR      5  -1  76 W6        30.36S
MCCOOK NEB     CLEAR      3  -2  79 CALM      30.44S
AKRON CO       PTCLDY     5   0  79 S7        30.23F
BURLINGTON CO  CLEAR     -6 -10  83 W6        30.29F
LIMON CO       CLEAR      0  -4  83 CALM      30.21S
$$

...UNOFFICIAL OBSERVATIONS...

CITY           SKY/WX    TMP DP  RH WIND       PRES   REMARKS
NORTON KS      CLEAR      5  -2  72 W3        30.45
SHARON SPRINGS   N/A      6   0  74 CALM        N/A
TRENTON NEB      N/A     -3  32 100 CALM        N/A
KIT CARSON CO    N/A     -5 -10  79 CALM        N/A
$$




USA.gov is the U.S. government's official web portal to all federal, state and local government web resources and services.